Weather History for Merrill, WI

Change the Weather History Date:

Monday, February 10, 2014

  Actual Average Record
Temperature  
Mean Temperature -5 °F -  
Max Temperature 8 °F 25 °F 44 °F (1976)
Min Temperature -18 °F 0 °F -33 °F (1933)
Degree Days  
Heating Degree Days 70    
Moisture  
Dew Point -16 °F    
Average Humidity 65    
Maximum Humidity 80    
Minimum Humidity 46    
Precipitation  
Precipitation 0.00 in - - ()
Sea Level Pressure  
Sea Level Pressure 30.29 in    
Wind  
Wind Speed 2 mph (NW)    
Max Wind Speed 10 mph    
Max Gust Speed -    
Visibility 10 miles    
Events      
Averages and records for this station are not official NWS values.
T = Trace of Precipitation, MM = Missing Value Source: NWS Daily Summary

Daily Weather History Graph

Daily Weather History Graph

Search for Another Location

Airport:

Trip Planner

Search our weather history database for the weather conditions in past years. The results will help you decide how hot, cold, wet, or windy it might be!

Date:

Astronomy

Feb. 10, 2014 Rise Set
Actual Time 7:07 AM CST 5:19 PM CST
Civil Twilight 6:36 AM CST 5:50 PM CST
Nautical Twilight 6:02 AM CST 6:24 PM CST
Astronomical Twilight 5:27 AM CST 6:59 PM CST
Moon 1:43 PM CST (2/10) 4:05 AM CST (2/10)
Length of Visible Light 11h 13m
Length of Day
10h 12m
Waxing Gibbous, 85% of the Moon is Illuminated
Feb 10
Waxing Gibbous
Feb 14
Full
Feb 22
Last Quarter
Mar 1
New
Mar 8
First Quarter

Hourly Weather History & Observations

Time (CST) Temp. Windchill Dew Point Humidity Pressure Visibility Wind Dir Wind Speed Gust Speed Precip Events Conditions
12:15 AM -12.8 °F - -18.6 °F 75% 30.21 in 10.0 mi Calm Calm - N/A   Clear
12:35 AM -13.5 °F - -19.3 °F 75% 30.22 in 10.0 mi Calm Calm - N/A   Clear
12:55 AM -12.5 °F - -18.4 °F 75% 30.22 in 10.0 mi Calm Calm - N/A   Clear
1:15 AM -12.1 °F - -17.5 °F 77% 30.22 in 10.0 mi Calm Calm - N/A   Clear
1:35 AM -13.5 °F - -19.7 °F 74% 30.22 in 10.0 mi Calm Calm - N/A   Clear
1:55 AM -13.7 °F - -19.8 °F 74% 30.22 in 10.0 mi Calm Calm - N/A   Clear
2:15 AM -15.3 °F - -21.1 °F 75% 30.22 in 10.0 mi Calm Calm - N/A   Clear
2:35 AM -14.6 °F - -20.0 °F 77% 30.22 in 10.0 mi Calm Calm - N/A   Clear
2:55 AM -16.6 °F - -21.8 °F 77% 30.23 in 10.0 mi Calm Calm - N/A   Clear
3:15 AM -17.3 °F - -23.3 °F 74% 30.23 in 10.0 mi Calm Calm - N/A   Clear
3:35 AM -17.3 °F - -22.9 °F 76% 30.23 in 10.0 mi Calm Calm - N/A   Clear
3:55 AM -17.1 °F - -22.2 °F 78% 30.24 in 10.0 mi Calm Calm - N/A   Clear
4:15 AM -16.8 °F - -22.0 °F 77% 30.24 in 10.0 mi Calm Calm - N/A   Clear
4:35 AM -18.2 °F - -24.0 °F 75% 30.24 in 10.0 mi Calm Calm - N/A   Clear
4:55 AM -16.4 °F - -21.5 °F 78% 30.25 in 10.0 mi Calm Calm - N/A   Clear
5:15 AM -16.2 °F - -21.3 °F 78% 30.25 in 10.0 mi Calm Calm - N/A   Clear
5:35 AM -13.4 °F - -18.0 °F 80% 30.26 in 10.0 mi Calm Calm - N/A   Clear
5:55 AM -13.7 °F - -18.4 °F 80% 30.26 in 10.0 mi Calm Calm - N/A   Clear
6:15 AM -14.6 °F - -19.3 °F 79% 30.26 in 10.0 mi Calm Calm - N/A   Clear
6:35 AM -17.0 °F -29.7 °F -22.0 °F 78% 30.28 in 10.0 mi West 4.6 mph - N/A   Clear
6:55 AM -15.0 °F - -19.7 °F 79% 30.28 in 10.0 mi Calm Calm - N/A   Clear
7:15 AM -15.0 °F - -19.7 °F 79% 30.28 in 10.0 mi Calm Calm - N/A   Clear
7:35 AM -15.7 °F -25.8 °F -20.9 °F 77% 30.29 in 10.0 mi West 3.5 mph - N/A   Clear
7:55 AM -14.1 °F -26.3 °F -19.5 °F 77% 30.29 in 10.0 mi WNW 4.6 mph - N/A   Clear
8:15 AM -12.1 °F -24.0 °F -18.2 °F 74% 30.29 in 10.0 mi WNW 4.6 mph - N/A   Clear
8:35 AM -10.5 °F -22.1 °F -17.1 °F 72% 30.29 in 10.0 mi WNW 4.6 mph - N/A   Clear
8:55 AM -9.0 °F -20.4 °F -16.1 °F 71% 30.30 in 10.0 mi WNW 4.6 mph - N/A   Clear
9:15 AM -7.4 °F -20.4 °F -15.0 °F 70% 30.30 in 10.0 mi WNW 5.8 mph - N/A   Clear
9:35 AM -5.8 °F -14.5 °F -14.1 °F 67% 30.30 in 10.0 mi NW 3.5 mph - N/A   Clear
9:55 AM -3.8 °F -19.9 °F -13.2 °F 64% 30.30 in 10.0 mi NW 9.2 mph - N/A   Clear
10:15 AM -3.1 °F -15.2 °F -13.0 °F 63% 30.30 in 10.0 mi WNW 5.8 mph - N/A   Clear
10:35 AM -1.7 °F -14.9 °F -12.6 °F 60% 30.30 in 10.0 mi NNW 6.9 mph - N/A   Clear
10:55 AM -0.4 °F -13.4 °F -12.3 °F 57% 30.30 in 10.0 mi West 6.9 mph - N/A   Clear
11:15 AM 1.0 °F -12.9 °F -11.7 °F 55% 30.30 in 10.0 mi NW 8.1 mph - N/A   Clear
11:35 AM 1.9 °F -10.6 °F -11.6 °F 53% 30.29 in 10.0 mi NNW 6.9 mph - N/A   Clear
11:55 AM 2.8 °F -9.5 °F -11.2 °F 52% 30.28 in 10.0 mi WNW 6.9 mph - N/A   Clear
12:15 PM 3.7 °F -5.5 °F -10.7 °F 51% 30.27 in 10.0 mi NNW 4.6 mph - N/A   Clear
12:35 PM 4.5 °F -6.3 °F -10.3 °F 51% 30.26 in 10.0 mi NNW 5.8 mph - N/A   Clear
12:55 PM 5.5 °F -9.3 °F -9.4 °F 50% 30.26 in 10.0 mi West 10.4 mph - N/A   Clear
1:15 PM 5.9 °F -4.5 °F -9.4 °F 50% 30.25 in 10.0 mi NNW 5.8 mph - N/A   Clear
1:35 PM 6.6 °F -5.0 °F -8.9 °F 49% 30.25 in 10.0 mi NNW 6.9 mph - N/A   Clear
1:55 PM 7.0 °F -6.6 °F -8.7 °F 49% 30.25 in 10.0 mi WNW 9.2 mph - N/A   Clear
2:15 PM 7.3 °F -5.2 °F -8.9 °F 48% 30.25 in 10.0 mi NW 8.1 mph - N/A   Clear
2:35 PM 8.2 °F -4.1 °F -8.3 °F 47% 30.26 in 10.0 mi WNW 8.1 mph - N/A   Clear
2:55 PM 7.7 °F -2.4 °F -8.7 °F 47% 30.26 in 10.0 mi NNW 5.8 mph - N/A   Clear
3:15 PM 7.7 °F -4.8 °F -8.5 °F 48% 30.26 in 10.0 mi West 8.1 mph - N/A   Clear
3:35 PM 7.5 °F -5.0 °F -9.4 °F 46% 30.27 in 10.0 mi WNW 8.1 mph - N/A   Clear
3:55 PM 7.0 °F -6.6 °F -9.6 °F 47% 30.27 in 10.0 mi NW 9.2 mph - N/A   Clear
4:15 PM 6.6 °F -5.0 °F -9.6 °F 48% 30.28 in 10.0 mi WNW 6.9 mph - N/A   Clear
4:35 PM 6.1 °F -4.3 °F -10.1 °F 47% 30.29 in 10.0 mi WNW 5.8 mph - N/A   Clear
4:55 PM 5.5 °F -6.3 °F -10.3 °F 48% 30.29 in 10.0 mi NW 6.9 mph - N/A   Clear
5:15 PM 4.1 °F -6.7 °F -10.7 °F 51% 30.30 in 10.0 mi NW 5.8 mph - N/A   Clear
5:35 PM 3.0 °F -6.4 °F -11.2 °F 52% 30.31 in 10.0 mi WNW 4.6 mph - N/A   Clear
5:55 PM 2.5 °F -5.0 °F -11.2 °F 53% 30.31 in 10.0 mi WNW 3.5 mph - N/A   Clear
6:15 PM 2.3 °F - -11.2 °F 53% 30.32 in 10.0 mi Calm Calm - N/A   Clear
6:35 PM 1.4 °F -6.2 °F -11.4 °F 55% 30.32 in 10.0 mi NW 3.5 mph - N/A   Clear
6:55 PM -1.1 °F -9.1 °F -12.6 °F 58% 30.32 in 10.0 mi WNW 3.5 mph - N/A   Clear
7:15 PM 0.1 °F -7.7 °F -11.4 °F 58% 30.32 in 10.0 mi WNW 3.5 mph - N/A   Clear
7:35 PM -0.8 °F - -11.7 °F 60% 30.33 in 10.0 mi Calm Calm - N/A   Clear
7:55 PM -0.9 °F - -11.6 °F 61% 30.33 in 10.0 mi Calm Calm - N/A   Clear
8:15 PM -2.2 °F - -12.3 °F 62% 30.34 in 10.0 mi Calm Calm - N/A   Clear
8:35 PM -4.9 °F - -14.1 °F 65% 30.34 in 10.0 mi Calm Calm - N/A   Clear
8:55 PM -6.9 °F - -15.2 °F 67% 30.35 in 10.0 mi Calm Calm - N/A   Clear
9:15 PM -10.1 °F - -16.2 °F 74% 30.35 in 10.0 mi Calm Calm - N/A   Clear
9:35 PM -11.4 °F -20.8 °F -17.5 °F 74% 30.36 in 10.0 mi NE 3.5 mph - N/A   Clear
9:55 PM -14.6 °F - -20.0 °F 77% 30.37 in 10.0 mi Calm Calm - N/A   Clear
10:15 PM -14.6 °F - -20.4 °F 75% 30.37 in 10.0 mi Calm Calm - N/A   Clear
10:35 PM -14.1 °F - -19.3 °F 77% 30.37 in 10.0 mi Calm Calm - N/A   Clear
10:55 PM -15.2 °F - -20.4 °F 77% 30.37 in 10.0 mi Calm Calm - N/A   Clear
11:15 PM -16.4 °F - -21.6 °F 77% 30.36 in 10.0 mi Calm Calm - N/A   Clear
11:35 PM -17.7 °F - -22.7 °F 78% 30.36 in 10.0 mi Calm Calm - N/A   Clear
11:55 PM -18.2 °F - -24.2 °F 74% 30.37 in 10.0 mi Calm Calm - N/A   Clear